GSAT-14

Last updated on May 23, 2019, 3:05 a.m. UTC

1 39498U 14001A   19142.69379626 -.00000085  00000-0  00000+0 0  9997
2 39498   0.0437 124.8273 0001824 211.6660 227.2881  1.00271021 19681
UTC
Height (km)
Latitude
Longitude
Inclination
Orbital Period
UTC large
Height (km)
Speed (km/s)
/
Latitude / Longitude
Inclination (degrees)
Orbital Period (minutes)
Azimuth
Elevation
Range (km)
Doppler Factor
iOS Compass Heading
iOS Angle

Next 30 passes for location: Hong Kong

Rise time Rise Azimuth (degrees) Set time Set Azimuth (degrees) Duration Max altitude (degrees)

No matching passes for this satellites